{"data":{"norad_id":66306,"intl_designator":"2025-248P","name":"BANDWAGON-4 OBJECT P","alt_names":[],"object_type":"PAYLOAD","status":"ACTIVE","operator":null,"country":"TBD","launch_date":"2025-11-02","launch_site_code":"AFETR","launch_vehicle":null,"mission":null,"orbit_class":"UNKNOWN","rcs_meters":null,"size_class":null,"mass_kg":null,"dimensions":null,"purposes":[],"wikipedia_slug":null,"has_3d_model":false,"image_url":null,"decayed_at":null,"tle_current":{"epoch":"2026-09-18T04:57:38.235456Z","epoch_age_seconds":329837,"freshness":"STALE","line1":"1 66306U 25248P   26261.20669254  .00012528  00000+0  43182-3 0  9991","line2":"2 66306  45.4029 328.6928 0011303 248.0726 111.8963 15.30046858 48834","mean_motion":15.30046858,"eccentricity":0.0011303,"inclination_deg":45.4029,"raan_deg":328.6928,"arg_perigee_deg":248.0726,"mean_anomaly_deg":111.8963,"bstar":0.00043182,"rev_number":4883,"period_min":94.114764686507,"perigee_km":467.92550124377,"apogee_km":483.41922268743,"semimajor_km":6853.8093619656,"source":"CELESTRAK","updated_at":"2026-09-21T09:00:15.904462Z"}}}